Location: Unspecified
(0.0000°N, 0.0000°E)
Time: 02:10:48
(UTC+00:00)

STARLINK-32082 - Visible Passes

Search period start: 04 October 2024 00:00
Search period end: 14 October 2024 00:00
Orbit: 474 x 476 km, 53.2° (Epoch: 03 October)

Date Brightness Start Highest point End Pass type
(mag) Time Alt. Az. Time Alt. Az. Time Alt. Az.
09 Oct 4.8 19:28:07 10° SW 19:30:13 32° SW 19:30:13 32° SW visible
10 Oct 3.2 18:58:49 10° SSW 19:02:30 72° SE 19:03:09 55° ENE visible
11 Oct 3.4 18:29:34 10° SSW 18:33:12 55° SE 18:36:10 14° NE visible
